EN

Hourly Weather Toporki

Today, 21 April, Wednesday

Time Temperature Precipitation Wind Pressure Humidity
00:00 +7°C° 0 mm 2 mps 743 mmHg 86%
01:00 +6°C° 0 mm 2 mps 743 mmHg 87%
02:00 +6°C° 0 mm 2 mps 743 mmHg 89%
03:00 +6°C° 0 mm 2 mps 743 mmHg 89%
04:00 +5°C° 0 mm 2 mps 743 mmHg 89%
05:00 +5°C° 0 mm 2 mps 742 mmHg 89%
06:00 +6°C° 0 mm 2 mps 742 mmHg 84%
07:00 +8°C° 0 mm 3 mps 743 mmHg 80%
08:00 +9°C° 0 mm 3 mps 743 mmHg 75%
09:00 +10°C° 0.2 mm 3 mps 742 mmHg 71%
10:00 +11°C° 0.2 mm 4 mps 742 mmHg 67%
11:00 +12°C° 0.2 mm 4 mps 742 mmHg 62%
12:00 +13°C° 0.3 mm 4 mps 742 mmHg 61%
13:00 +13°C° 0.3 mm 4 mps 742 mmHg 59%
14:00 +14°C° 0 mm 4 mps 742 mmHg 57%
15:00 +14°C° 0.4 mm 4 mps 742 mmHg 59%
16:00 +13°C° 0.4 mm 4 mps 741 mmHg 60%
17:00 +13°C° 0.4 mm 4 mps 741 mmHg 62%
18:00 +12°C° 0.2 mm 3 mps 741 mmHg 67%
19:00 +10°C° 0.2 mm 2 mps 741 mmHg 72%
20:00 +9°C° 0.2 mm 2 mps 742 mmHg 78%
21:00 +9°C° 0.1 mm 2 mps 742 mmHg 80%
22:00 +8°C° 0.1 mm 2 mps 742 mmHg 82%
23:00 +8°C° 0.1 mm 2 mps 742 mmHg 85%

Tomorrow, 22 April, Thursday

Time Temperature Precipitation Wind Pressure Humidity
00:00 +7°C° 0 mm 3 mps 742 mmHg 86%
01:00 +7°C° 0 mm 3 mps 742 mmHg 87%
02:00 +7°C° 0 mm 3 mps 742 mmHg 89%
03:00 +5°C° 0.1 mm 3 mps 742 mmHg 90%
04:00 +5°C° 0.1 mm 3 mps 742 mmHg 92%
05:00 +4°C° 0.1 mm 3 mps 742 mmHg 93%
06:00 +5°C° 0.1 mm 4 mps 742 mmHg 91%
07:00 +5°C° 0.1 mm 4 mps 743 mmHg 89%
08:00 +5°C° 0.1 mm 5 mps 743 mmHg 87%
09:00 +6°C° 0 mm 5 mps 743 mmHg 76%
10:00 +5°C° 0 mm 6 mps 744 mmHg 65%
11:00 +6°C° 0 mm 7 mps 744 mmHg 55%
12:00 +7°C° 0 mm 6 mps 744 mmHg 51%
13:00 +8°C° 0 mm 6 mps 744 mmHg 48%
14:00 +8°C° 0 mm 6 mps 744 mmHg 44%
15:00 +8°C° 0 mm 6 mps 744 mmHg 46%
16:00 +8°C° 0 mm 6 mps 744 mmHg 48%
17:00 +8°C° 0 mm 6 mps 744 mmHg 50%
18:00 +7°C° 0 mm 6 mps 744 mmHg 55%
19:00 +5°C° 0 mm 5 mps 745 mmHg 60%
20:00 +4°C° 0 mm 4 mps 745 mmHg 65%
21:00 +4°C° 0 mm 4 mps 745 mmHg 70%
22:00 +3°C° 0 mm 4 mps 745 mmHg 75%
23:00 +1°C° 0 mm 5 mps 745 mmHg 80%

Day after tomorrow, 23 April, Friday

Time Temperature Precipitation Wind Pressure Humidity
00:00 +1°C° 0 mm 5 mps 745 mmHg 80%
01:00 0°C° 0 mm 5 mps 745 mmHg 79%
02:00 0°C° 0 mm 5 mps 745 mmHg 79%
03:00 -1°C° 0 mm 5 mps 745 mmHg 79%
04:00 -1°C° 0 mm 5 mps 745 mmHg 79%
05:00 -2°C° 0 mm 5 mps 745 mmHg 79%
06:00 -1°C° 0 mm 5 mps 746 mmHg 77%
07:00 0°C° 0 mm 5 mps 746 mmHg 74%
08:00 +1°C° 0 mm 5 mps 747 mmHg 72%
09:00 +2°C° 0.3 mm 6 mps 747 mmHg 66%
10:00 +4°C° 0.3 mm 6 mps 747 mmHg 60%
11:00 +5°C° 0.3 mm 7 mps 747 mmHg 54%
12:00 +5°C° 0.1 mm 6 mps 747 mmHg 51%
13:00 +7°C° 0.1 mm 6 mps 747 mmHg 48%
14:00 +7°C° 0.1 mm 6 mps 747 mmHg 45%
15:00 +7°C° 0.2 mm 5 mps 747 mmHg 51%
16:00 +6°C° 0.2 mm 5 mps 746 mmHg 57%
17:00 +6°C° 0.2 mm 5 mps 746 mmHg 62%
18:00 +3°C° 1.1 mm 5 mps 747 mmHg 72%
19:00 +1°C° 1.1 mm 5 mps 747 mmHg 82%
20:00 -1°C° 1.1 mm 4 mps 747 mmHg 93%
21:00 -1°C° 0.1 mm 4 mps 748 mmHg 90%
22:00 -2°C° 0.1 mm 4 mps 748 mmHg 88%
23:00 -2°C° 0.1 mm 4 mps 748 mmHg 85%

24 April, Saturday

Time Temperature Precipitation Wind Pressure Humidity
00:00 -3°C° 0 mm 4 mps 748 mmHg 87%
01:00 -3°C° 0 mm 4 mps 749 mmHg 89%
02:00 -4°C° 0 mm 4 mps 749 mmHg 91%
03:00 -4°C° 0 mm 4 mps 749 mmHg 90%
04:00 -4°C° 0 mm 4 mps 749 mmHg 89%
05:00 -4°C° 0 mm 4 mps 749 mmHg 88%
06:00 -2°C° 0 mm 4 mps 749 mmHg 83%
07:00 -1°C° 0 mm 4 mps 749 mmHg 77%
08:00 +1°C° 0 mm 5 mps 750 mmHg 72%
09:00 +2°C° 0.1 mm 5 mps 749 mmHg 64%
10:00 +3°C° 0.1 mm 6 mps 749 mmHg 57%
11:00 +5°C° 0.1 mm 7 mps 749 mmHg 50%
12:00 +5°C° 0.1 mm 7 mps 749 mmHg 48%
13:00 +5°C° 0.1 mm 7 mps 749 mmHg 46%
14:00 +6°C° 0.1 mm 7 mps 749 mmHg 44%
15:00 +5°C° 0.1 mm 6 mps 749 mmHg 50%
16:00 +5°C° 0.1 mm 6 mps 749 mmHg 55%
17:00 +4°C° 0.1 mm 6 mps 749 mmHg 61%
18:00 +3°C° 0.1 mm 5 mps 749 mmHg 67%
19:00 +3°C° 0.1 mm 4 mps 749 mmHg 74%
20:00 0°C° 0.1 mm 4 mps 749 mmHg 81%
21:00 0°C° 0.1 mm 4 mps 749 mmHg 81%
22:00 -1°C° 0.1 mm 4 mps 749 mmHg 82%
23:00 -1°C° 0.1 mm 3 mps 749 mmHg 82%

25 April, Sunday

Time Temperature Precipitation Wind Pressure Humidity
00:00 -3°C° 0 mm 4 mps 749 mmHg 82%
01:00 -3°C° 0 mm 4 mps 750 mmHg 83%
02:00 -4°C° 0 mm 4 mps 750 mmHg 83%
03:00 -4°C° 0 mm 4 mps 750 mmHg 85%
04:00 -3°C° 0 mm 4 mps 750 mmHg 87%
05:00 -3°C° 0 mm 4 mps 750 mmHg 89%
06:00 -2°C° 0 mm 5 mps 750 mmHg 82%
07:00 -1°C° 0 mm 5 mps 750 mmHg 76%
08:00 -1°C° 0 mm 6 mps 750 mmHg 69%
09:00 +2°C° 0 mm 6 mps 750 mmHg 62%
10:00 +3°C° 0 mm 6 mps 750 mmHg 54%
11:00 +4°C° 0 mm 6 mps 750 mmHg 47%
12:00 +4°C° 0.2 mm 6 mps 750 mmHg 49%
13:00 +5°C° 0.2 mm 7 mps 750 mmHg 50%
14:00 +5°C° 0.2 mm 8 mps 749 mmHg 52%
15:00 +5°C° 0.3 mm 7 mps 749 mmHg 55%
16:00 +4°C° 0.3 mm 7 mps 749 mmHg 59%
17:00 +4°C° 0.3 mm 6 mps 749 mmHg 62%
18:00 +3°C° 0.1 mm 5 mps 749 mmHg 65%
19:00 +1°C° 0.1 mm 4 mps 749 mmHg 68%
20:00 +1°C° 0.1 mm 3 mps 749 mmHg 71%
21:00 0°C° 0 mm 3 mps 749 mmHg 74%
22:00 -1°C° 0 mm 3 mps 749 mmHg 77%
23:00 -2°C° 0 mm 3 mps 750 mmHg 81%

26 April, Monday

Time Temperature Precipitation Wind Pressure Humidity
00:00 -4°C° 0 mm 3 mps 749 mmHg 81%
01:00 -3°C° 0 mm 2 mps 749 mmHg 81%
02:00 -3°C° 0 mm 2 mps 749 mmHg 81%
03:00 -3°C° 0 mm 2 mps 749 mmHg 79%
04:00 -3°C° 0 mm 2 mps 749 mmHg 77%
05:00 -3°C° 0 mm 2 mps 749 mmHg 75%
06:00 -1°C° 0 mm 2 mps 749 mmHg 71%
07:00 +1°C° 0 mm 2 mps 748 mmHg 66%
08:00 +3°C° 0 mm 2 mps 748 mmHg 61%
09:00 +3°C° 0.1 mm 2 mps 748 mmHg 60%
10:00 +4°C° 0.1 mm 2 mps 748 mmHg 59%
11:00 +4°C° 0.1 mm 3 mps 747 mmHg 57%
12:00 +4°C° 0.3 mm 3 mps 747 mmHg 64%
13:00 +4°C° 0.3 mm 3 mps 747 mmHg 72%
14:00 +4°C° 0.3 mm 3 mps 746 mmHg 79%
15:00 +5°C° 0.1 mm 3 mps 746 mmHg 73%
16:00 +5°C° 0.1 mm 3 mps 746 mmHg 68%
17:00 +7°C° 0.1 mm 3 mps 746 mmHg 62%
18:00 +5°C° 0 mm 2 mps 746 mmHg 68%
19:00 +4°C° 0 mm 2 mps 746 mmHg 73%
20:00 +3°C° 0 mm 1 mps 746 mmHg 78%
21:00 +3°C° 0 mm 1 mps 746 mmHg 80%
22:00 +2°C° 0 mm 1 mps 746 mmHg 82%
23:00 +2°C° 0 mm 1 mps 747 mmHg 83%
Show more

We Need Your Consent

Meteoprog and our Service Providers may store and access personal data such as cookies, device identifiers or other similar technologies on your device and process such data to personalise content and ads, as well as provide social media features and to analyse the traffic.

  • Store and/or access information on your device

    Cookies, device identifiers or other information can be stored or accessed on your device for the purposes indicated above.

  • Personalised ads and content, ad and content measurement, audience insights, and products development

    Ads and content can be personalised based on a profile. More data can be added to better personalise ads and content. Ad and content performance can be measured. Insights about the audience who saw the ads and content can be derived. Such data can be used to develop or improve user’s experience, systems and software.

By clicking ‘I Agree’ you will allow the use of indicated cookies, device identifiers, web beacons or other similar technologies. Your settings can be changed in the browser on your device.

For certain purposes, legitimate interests may be relied on, rather than consent. You can read more about this in our Privacy and Cookie Policy.